Miscellaneous Local Product
Issued by NWS Hastings, NE

Home | Current Version | Previous Version | Text Only | Print | Product List | Glossary Off
Versions: 1 2 3 4 5 6 7 8 9 10 11 12 13 14 15 16 17 18 19 20 21 22 23 24 25 26 27 28 29 30 31 32 33 34 35 36 37 38 39 40 41 42 43 44 45 46 47 48 49 50

000
AXUS43 KGID 261802
MISGRI

GID CWA HOURLY WEATHER ROUNDUP
NATIONAL WEATHER SERVICE HASTINGS NE
100 PM CDT THU MAR 26 2015

NOTE: "FAIR" INDICATES FEW OR NO CLOUDS BELOW 12,000 FEET WITH NO
SIGNIFICANT WEATHER AND/OR OBSTRUCTIONS TO VISIBILITY.

...SOUTH CENTRAL NEBRASKA...

CITY           SKY/WX    TMP DP  RH WIND       PRES   REMARKS
GRAND ISLAND   CLOUDY    45  25  45 SW8       30.15F
HASTINGS       CLOUDY    46  27  47 S5        30.15F
KEARNEY        CLOUDY    46  25  42 S13       30.13F
ORD            CLOUDY    44  23  43 S12       30.09F
YORK           MOSUNNY   41  25  52 CALM      30.18F
AURORA         PTSUNNY   44  26  50 SW5       30.17F
LEXINGTON      CLOUDY    46  26  45 S13       30.11F
HOLDREGE       CLOUDY    44  27  51 SW13G18   30.13F
HEBRON         MOSUNNY   45  24  43 CALM      30.18F

...NEBRASKA PANHANDLE...

CITY           SKY/WX    TMP DP  RH WIND       PRES   REMARKS
CHADRON        CLOUDY    50  31  48 NW23G35   30.12F
ALLIANCE       CLOUDY    50  27  40 NW21G32   30.12S
SCOTTSBLUFF    CLOUDY    51  32  48 NW29G38   30.16S
SIDNEY         PTSUNNY   53  23  31 NW29G39   30.15R

...WESTERN AND NORTH CENTRAL NEBRASKA...

CITY           SKY/WX    TMP DP  RH WIND       PRES   REMARKS
VALENTINE      PTSUNNY   48  27  44 E8        30.04F
AINSWORTH      CLOUDY    42  27  55 SW6       30.07F
ONEILL         CLOUDY    41  28  60 CALM      30.13F
BROKEN BOW     CLOUDY    46  26  45 S15G25    30.08F
IMPERIAL         N/A     57  25  29 NW24G33   30.10F
NORTH PLATTE   PTSUNNY   54  27  35 W9        30.07F
MCCOOK         CLOUDY    57  31  37 W16       30.10F

...EASTERN NEBRASKA...

CITY           SKY/WX    TMP DP  RH WIND       PRES   REMARKS
NORFOLK        PTSUNNY   43  23  45 VRB3      30.15F
SO SIOUX CITY  PTSUNNY   45  22  40 N13       30.17F
TEKAMAH        SUNNY     48  23  37 NW17G31   30.17F
COLUMBUS       MOSUNNY   43  21  42 CALM      30.18F
ALBION         PTSUNNY   44  23  44 CALM      30.13F
OMAHA EPPLEY   MOSUNNY   46  23  40 NW5       30.17F
OFFUTT AFB     SUNNY     46  23  40 VRB5      30.17F
MILLARD        SUNNY     44  23  44 NW9G17    30.18F
LINCOLN        SUNNY     48  23  37 NW8       30.19F
NEBRASKA CITY  SUNNY     44  22  41 N9G16     30.19F
BEATRICE       SUNNY     45  27  49 NW6       30.20F
FALLS CITY     SUNNY     45  28  51 NW12      30.19F

...NORTHERN KANSAS...

CITY           SKY/WX    TMP DP  RH WIND       PRES   REMARKS
GOODLAND       CLOUDY    56  26  31 NW16G28   30.14F
HILL CITY      MOSUNNY   53  32  44 SW10G18   30.16F
NORTON         CLEAR     54  28  37 S13G18    30.12F
PHILLIPSBURG   SUNNY     54  30  40 S12       30.16F
SMITH CENTER   SUNNY     46  30  53 S9        30.18F
BELOIT         SUNNY     52  25  35 S6        30.18F
HAYS           MOSUNNY   52  28  40 W6        30.19F
RUSSELL        SUNNY     50  29  44 W7        30.18F
CONCORDIA      SUNNY     49  25  39 N7        30.19F
SALINA         MOSUNNY   49  27  42 VRB6      30.22F
TOPEKA         SUNNY     48  28  46 VRB7G17   30.20F



USA.gov is the U.S. government's official web portal to all federal, state and local government web resources and services.